Location: Baix
(44.7118°N, 4.7648°E)
Time: 12:41:34
(UTC+00:00)

Vanguard 2 Rocket - Pass Details

Date: 05 December 2020
Orbit: 554 x 3325 km, 32.9° (Epoch: 23 January)

Event Time Altitude Azimuth Distance (km) Brightness Sun altitude
Rises 09:09:59 0° 267° (W) 7,140 11.2 15.5°
Reaches altitude 10° 09:14:48 10° 263° (W) 6,238 10.9 15.9°
Maximum altitude 09:34:01 53° 195° (SSW) 3,559 10.6 17.7°
Drops below altitude 10° 09:48:52 10° 124° (SE) 4,942 11.8 18.9°
Sets 09:52:11 0° 120° (ESE) 5,630 11.8 19.1°
